BREEZE-M DEB, 37198

Orbit data source: Space-Track

BREEZE-M DEB, 37198 is space debris in HEO originally from a launch on Fri, 14 Mar 2008 UTC launched from the Tyuratam Missile And Space Complex (TTMTR). Debris objects in space refer to the collection of defunct objects orbiting the Earth. Examples of debris include non-operational satellites, rocket bodies, and fragments generated from explosions, collisions, or faulty payload assembly.

Loading next visibility...
Identifier
37198, 2008-011C
Orbit
HEO
Country
Flag of CISCIS
Related business
Manufacturer
Khrunichev
Mission
Spacecraft
Bus & Motor
BRIZ TANK, Unknown motor
Mass
Wet unknown, ~1,000 kg dry
Launch date (UTC)
2008-03-14 (18 years ago)
Launch vehicle
Unknown
Launch site
Tyuratam Missile And Space Complex (TTMTR)
Object type
Payload
Rocket body
Debris
Shape & HBR
Unknown shape, 2.3 m
Radar Cross Section
Large (>1 m²)

Expand to show TLE details & history
Last TLE update: 3 days ago

TLE from 3 days ago
0 BREEZE-M DEB
1 37198U 08011C   26171.34197660  .00000263  00000-0  71471-3 0  9995
2 37198  49.1013 173.0687 6548331  31.1342 354.8947  3.12744321178388
Epoch: 2026-06-20T08:12Z
TLE epoch observation values (Epoch: 2026-06-20T08:12:26.778Z)
Latitude
-0.00047°
Longitude
141.37001°
Altitude
852.293 km
Speed
9.491 km/s
True Right ascension
11h 32m 09s
True Declination
0° 00' 02"
Sunlit
Object was in daylight at epoch
Visualization orbit readout
Latitude
Unknown
Longitude
Unknown
Altitude
Unknown
Speed
Unknown
Apparent Right ascension
Unknown
Apparent Declination
Unknown
Sunlit
N/A
Visualization observer readout
Local Sidereal Time
13:53:30
Azimuth
Unknown
Elevation
Unknown
Doppler factor
Unknown
Orbital elements
Apogee altitude
26,309.204 km
Perigee altitude
439.824 km
Semi-major axis
19,752.651 km
Eccentricity
0.65483
Inclination
49.1013°
RAAN
173.0687°
Arg. of periapsis
31.1342°
True anomaly
328.87322°
Mean anomaly
354.8947°
Eccentric anomaly
345.50177°
Mean motion
0.78182 °/min
Orbital period
460.47 mins
BSTAR
0.00071471
Loading maneuver chart data...
Computing Atmospheric mass density...
Loading historical data...
Loading historical data...
Loading historical data...
Loading historical data...
Loading historical data...
Loading historical data...
Loading historical data...

Documentation

Showing up to 5 results
|